sat.trackr.live / text

‹ back to catalog

STARLINK-34330

NORAD 64227 · 2025-117AA

PAYLOAD ACTIVE UNKNOWN

§ Identity

Operator
Country
US
Launch date
2025-05-31
Launch site
AFWTR
Launch vehicle
Mass (kg)
RCS (m²)

Purposes: comms

External: N2YO · Heavens-Above · Gunter

§ Orbital elements

Epoch: 2026-09-20T03:06:26.739360Z

Period
93.85 min
Inclination
53.1592°
Eccentricity
0.0002726
Mean motion
15.34409363 rev/d
Perigee alt
460.8 km
Apogee alt
464.5 km
Semi-major
6,840.8 km
B*
6.3123e-4
RAAN
215.1439°
Arg perigee
93.2288°
Mean anomaly
266.9026°
Rev number
7,431

§ Raw data

STARLINK-343301 64227U 25117AA  26263.12947615  .00021018  00000+0  63123-3 0  99902 64227  53.1592 215.1439 0002726  93.2288 266.9026 15.34409363 74316

JSON: /api/v1/satellites/64227 · /tle

For live sub-satellite position, see the globe view (requires WebGL).

§ Visibility from observer

Set your observer location to see the next 7 days of passes ≥ 10°. The values pass through the URL so the page stays shareable.

No JS? Fill the form by hand. The geolocation button needs JavaScript.